| time (UTC) | temp F | wind direction | speed knots | gust knots | rain 1hr in | rain 24hr in | rain mn in | humidity % | barometer mb |
| 20260906085108 | 61 | 90 | 0.0 | 5.2 | 0.00 | 0.04 | 0.04 | 84 | 1011.5 |
| 20260906084036 | 60 | 246 | 1.7 | 5.2 | 0.00 | 0.04 | 0.04 | 83 | 1011.9 |
| 20260906083035 | 59 | 71 | 1.7 | 6.1 | 0.00 | 0.04 | 0.04 | 86 | 1011.9 |
| 20260906082035 | 59 | 308 | 0.9 | 6.1 | 0.00 | 0.04 | 0.04 | 86 | 1011.9 |
| 20260906081033 | 59 | 230 | 0.9 | 6.1 | 0.00 | 0.04 | 0.04 | 86 | 1011.9 |
| 20260906080033 | 58 | 157 | 1.7 | 3.5 | 0.00 | 0.04 | 0.04 | 90 | 1011.9 |
| 20260906075031 | 57 | 60 | 0.9 | 5.2 | 0.00 | 0.04 | 0.04 | 91 | 1011.9 |
| 20260906074030 | 56 | 270 | 0.9 | 6.1 | 0.01 | 0.04 | 0.04 | 91 | 1011.9 |
| 20260906073029 | 56 | 109 | 0.9 | 2.6 | 0.04 | 0.04 | 0.04 | 92 | 1011.9 |
| 20260906072028 | 55 | 36 | 1.7 | 4.3 | 0.04 | 0.04 | 0.04 | 92 | 1012.2 |
| 20260906071027 | 55 | 230 | 0.9 | 5.2 | 0.04 | 0.04 | 0.04 | 91 | 1011.9 |
| 20260906070026 | 56 | 202 | 0.9 | 4.3 | 0.04 | 0.04 | 0.04 | 90 | 1011.9 |
| 20260906065025 | 56 | 67 | 0.9 | 3.5 | 0.04 | 0.04 | 0.04 | 89 | 1011.9 |
| 20260906064024 | 58 | 278 | 0.0 | 2.6 | 0.03 | 0.03 | 0.03 | 85 | 1011.9 |
| 20260906063023 | 60 | 65 | 0.9 | 7.0 | 0.00 | 0.00 | 0.00 | 77 | 1011.5 |
| 20260906062021 | 60 | 118 | 0.9 | 7.0 | 0.00 | 0.00 | 0.00 | 73 | 1011.5 |
| 20260906061021 | 60 | 338 | 0.9 | 3.5 | 0.00 | 0.00 | 0.00 | 73 | 1011.5 |
| 20260906060019 | 60 | 101 | 1.7 | 5.2 | 0.00 | 0.00 | 0.00 | 74 | 1011.5 |
| 20260906055018 | 59 | 300 | 1.7 | 5.2 | 0.00 | 0.00 | 0.00 | 74 | 1011.2 |
| 20260906054017 | 59 | 174 | 1.7 | 2.6 | 0.00 | 0.01 | 0.00 | 74 | 1011.2 |
| 20260906053016 | 59 | 148 | 0.9 | 1.7 | 0.00 | 0.01 | 0.00 | 75 | 1011.2 |
| 20260906052015 | 59 | 224 | 0.9 | 3.5 | 0.00 | 0.01 | 0.00 | 75 | 1010.8 |
| 20260906050943 | 58 | 135 | 0.0 | 0.9 | 0.00 | 0.01 | 0.00 | 76 | 1011.2 |
| 20260906045942 | 58 | 188 | 0.9 | 2.6 | 0.00 | 0.01 | 0.00 | 78 | 1011.2 |
| 20260906044941 | 57 | 120 | 1.7 | 2.6 | 0.00 | 0.01 | 0.00 | 79 | 1011.2 |
| 20260906043940 | 56 | 66 | 0.9 | 3.5 | 0.00 | 0.01 | 0.00 | 80 | 1011.5 |
| 20260906042908 | 56 | 188 | 0.0 | 3.5 | 0.00 | 0.01 | 0.00 | 80 | 1011.5 |
| 20260906041906 | 56 | 148 | 0.0 | 2.6 | 0.00 | 0.01 | 0.00 | 80 | 1011.2 |
| 20260906040905 | 56 | 160 | 0.9 | 2.6 | 0.00 | 0.01 | 0.00 | 80 | 1011.5 |
| 20260906035904 | 56 | 135 | 0.0 | 2.6 | 0.00 | 0.01 | 0.00 | 80 | 1011.2 |
| 20260906034832 | 56 | 142 | 0.9 | 1.7 | 0.00 | 0.01 | 0.00 | 80 | 1011.2 |
| 20260906033831 | 56 | 173 | 0.9 | 1.7 | 0.00 | 0.01 | 0.00 | 80 | 1011.2 |
| 20260906032830 | 56 | 176 | 0.9 | 3.5 | 0.00 | 0.01 | 0.00 | 80 | 1011.2 |
| 20260906031829 | 56 | 130 | 1.7 | 3.5 | 0.00 | 0.01 | 0.00 | 80 | 1011.2 |
| 20260906030828 | 56 | 148 | 0.9 | 1.7 | 0.00 | 0.01 | 0.00 | 79 | 1010.8 |
| 20260906025827 | 56 | 124 | 0.9 | 2.6 | 0.00 | 0.01 | 0.00 | 79 | 1010.8 |
| 20260906024826 | 57 | 349 | 0.0 | 2.6 | 0.00 | 0.01 | 0.00 | 79 | 1010.8 |
| 20260906023825 | 57 | 55 | 0.0 | 5.2 | 0.00 | 0.01 | 0.00 | 78 | 1010.8 |
| 20260906022824 | 57 | 103 | 0.9 | 5.2 | 0.00 | 0.01 | 0.00 | 78 | 1010.8 |
| 20260906021824 | 58 | 102 | 1.7 | 2.6 | 0.00 | 0.01 | 0.00 | 77 | 1010.8 |
| 20260906020823 | 58 | 100 | 0.0 | 2.6 | 0.00 | 0.01 | 0.00 | 77 | 1010.5 |
| 20260906015822 | 58 | 155 | 1.7 | 2.6 | 0.00 | 0.01 | 0.00 | 76 | 1010.5 |
| 20260906014821 | 58 | 213 | 0.9 | 2.6 | 0.00 | 0.01 | 0.00 | 76 | 1010.5 |
| 20260906013820 | 58 | 12 | 0.0 | 2.6 | 0.00 | 0.01 | 0.00 | 76 | 1010.5 |
| 20260906012819 | 59 | 143 | 0.0 | 2.6 | 0.00 | 0.01 | 0.00 | 75 | 1010.5 |
| 20260906011819 | 59 | 271 | 0.0 | 3.5 | 0.00 | 0.01 | 0.00 | 75 | 1010.5 |
| 20260906010818 | 59 | 161 | 1.7 | 4.3 | 0.00 | 0.01 | 0.00 | 75 | 1010.5 |
| 20260906005746 | 59 | 95 | 0.9 | 4.3 | 0.00 | 0.01 | 0.00 | 75 | 1010.8 |
| 20260906004745 | 59 | 122 | 0.9 | 3.5 | 0.00 | 0.01 | 0.00 | 75 | 1010.8 |
| 20260906003713 | 59 | 106 | 0.9 | 2.6 | 0.00 | 0.01 | 0.00 | 75 | 1010.8 |
| 20260906002712 | 59 | 278 | 1.7 | 2.6 | 0.00 | 0.01 | 0.00 | 75 | 1010.8 |
| 20260906001711 | 59 | 181 | 0.9 | 1.7 | 0.00 | 0.01 | 0.00 | 75 | 1010.8 |
| 20260906000639 | 60 | 44 | 0.0 | 1.7 | 0.00 | 0.01 | 0.00 | 74 | 1010.8 |
| 20260905235638 | 60 | 115 | 0.9 | 1.7 | 0.00 | 0.01 | 0.00 | 74 | 1010.8 |
| 20260905234637 | 60 | 121 | 0.0 | 1.7 | 0.00 | 0.01 | 0.00 | 73 | 1010.8 |
| 20260905233636 | 60 | 153 | 0.0 | 0.9 | 0.00 | 0.01 | 0.00 | 73 | 1010.8 |
| 20260905232635 | 60 | 193 | 0.0 | 2.6 | 0.00 | 0.01 | 0.00 | 73 | 1010.8 |
| 20260905231633 | 60 | 139 | 0.9 | 2.6 | 0.00 | 0.01 | 0.00 | 73 | 1010.8 |
| 20260905230632 | 61 | 147 | 0.0 | 0.9 | 0.00 | 0.01 | 0.00 | 72 | 1010.8 |
| 20260905225631 | 61 | 281 | 0.0 | 0.9 | 0.00 | 0.01 | 0.00 | 71 | 1010.8 |
| 20260905224630 | 61 | 263 | 0.9 | 0.9 | 0.00 | 0.01 | 0.00 | 70 | 1010.8 |
| 20260905223629 | 62 | 215 | 0.0 | 2.6 | 0.00 | 0.01 | 0.00 | 70 | 1010.8 |
| 20260905222628 | 62 | 272 | 0.9 | 4.3 | 0.00 | 0.01 | 0.00 | 69 | 1010.8 |
| 20260905221627 | 62 | 229 | 0.9 | 4.3 | 0.00 | 0.01 | 0.00 | 69 | 1010.8 |
| 20260905220627 | 62 | 113 | 0.9 | 0.9 | 0.00 | 0.01 | 0.00 | 69 | 1010.8 |
| 20260905215523 | 62 | 67 | 0.0 | 1.7 | 0.00 | 0.01 | 0.00 | 68 | 1010.8 |
| 20260905214523 | 62 | 34 | 0.9 | 2.6 | 0.00 | 0.01 | 0.00 | 68 | 1010.8 |
| 20260905213522 | 63 | 109 | 0.9 | 1.7 | 0.00 | 0.01 | 0.00 | 67 | 1010.8 |
| 20260905212520 | 63 | 96 | 0.9 | 2.6 | 0.00 | 0.01 | 0.00 | 66 | 1010.8 |
| 20260905211520 | 64 | 123 | 1.7 | 2.6 | 0.00 | 0.01 | 0.00 | 65 | 1010.5 |
| 20260905210519 | 64 | 83 | 0.9 | 1.7 | 0.00 | 0.01 | 0.00 | 65 | 1010.5 |
| 20260905205518 | 64 | 311 | 0.0 | 2.6 | 0.00 | 0.01 | 0.02 | 65 | 1010.5 |
| 20260905204517 | 63 | 290 | 0.9 | 3.5 | 0.00 | 0.01 | 0.02 | 65 | 1010.5 |
| 20260905203516 | 63 | 148 | 0.0 | 1.7 | 0.00 | 0.01 | 0.02 | 65 | 1010.5 |
| 20260905202515 | 63 | 116 | 0.0 | 0.9 | 0.00 | 0.01 | 0.02 | 64 | 1010.5 |
| 20260905201514 | 64 | 75 | 0.9 | 1.7 | 0.00 | 0.01 | 0.02 | 64 | 1010.5 |
| 20260905200513 | 64 | 58 | 0.9 | 2.6 | 0.00 | 0.01 | 0.02 | 63 | 1010.5 |
| 20260905195512 | 64 | 257 | 0.9 | 2.6 | 0.00 | 0.01 | 0.02 | 64 | 1010.5 |
| 20260905194511 | 64 | 143 | 0.0 | 0.9 | 0.00 | 0.01 | 0.02 | 64 | 1010.5 |
| 20260905193510 | 64 | 133 | 0.9 | 1.7 | 0.00 | 0.01 | 0.02 | 64 | 1010.5 |
| 20260905192509 | 64 | 168 | 0.9 | 1.7 | 0.00 | 0.01 | 0.02 | 65 | 1010.5 |
| 20260905191508 | 64 | 88 | 0.9 | 0.9 | 0.00 | 0.01 | 0.02 | 65 | 1010.5 |
| 20260905190507 | 64 | 101 | 0.9 | 0.9 | 0.00 | 0.01 | 0.02 | 65 | 1010.2 |
| 20260905185506 | 65 | 120 | 0.0 | 0.9 | 0.00 | 0.01 | 0.02 | 65 | 1010.2 |
| 20260905184434 | 65 | 169 | 0.0 | 0.9 | 0.00 | 0.01 | 0.02 | 65 | 1010.2 |
| 20260905183402 | 66 | 77 | 0.0 | 0.9 | 0.00 | 0.01 | 0.02 | 64 | 1010.2 |
| 20260905182401 | 67 | 68 | 0.0 | 1.7 | 0.00 | 0.01 | 0.02 | 63 | 1010.2 |
| 20260905181400 | 67 | 102 | 0.9 | 1.7 | 0.00 | 0.01 | 0.02 | 62 | 1010.2 |
| 20260905180358 | 67 | 85 | 0.9 | 1.7 | 0.00 | 0.01 | 0.02 | 61 | 1010.2 |
| 20260905175357 | 67 | 150 | 0.9 | 0.9 | 0.00 | 0.01 | 0.02 | 61 | 1009.8 |
| 20260905174325 | 68 | 208 | 0.9 | 3.5 | 0.00 | 0.01 | 0.02 | 60 | 1009.8 |
| 20260905173324 | 68 | 126 | 0.9 | 3.5 | 0.00 | 0.01 | 0.02 | 59 | 1009.8 |
| 20260905172323 | 68 | 65 | 0.0 | 1.7 | 0.00 | 0.01 | 0.02 | 58 | 1009.8 |
| 20260905171321 | 68 | 159 | 0.0 | 1.7 | 0.00 | 0.01 | 0.02 | 58 | 1009.5 |
| 20260905170321 | 69 | 159 | 0.0 | 1.7 | 0.00 | 0.01 | 0.02 | 57 | 1009.5 |
| 20260905165320 | 69 | 91 | 0.0 | 2.6 | 0.00 | 0.01 | 0.02 | 57 | 1009.5 |
| 20260905164319 | 69 | 178 | 1.7 | 4.3 | 0.00 | 0.01 | 0.02 | 57 | 1009.1 |
| 20260905163318 | 70 | 222 | 0.0 | 5.2 | 0.00 | 0.01 | 0.02 | 57 | 1009.1 |
| 20260905162316 | 70 | 127 | 0.9 | 6.1 | 0.00 | 0.01 | 0.02 | 58 | 1009.1 |
| 20260905161245 | 70 | 103 | 0.9 | 6.1 | 0.00 | 0.01 | 0.02 | 59 | 1009.1 |
| 20260905160244 | 70 | 60 | 0.0 | 2.6 | 0.00 | 0.01 | 0.02 | 59 | 1009.1 |
| 20260905155243 | 71 | 2 | 1.7 | 2.6 | 0.00 | 0.01 | 0.02 | 59 | 1008.8 |
| 20260905154140 | 71 | 222 | 0.9 | 4.3 | 0.00 | 0.01 | 0.02 | 58 | 1008.8 |
| 20260905153139 | 72 | 205 | 0.9 | 6.1 | 0.00 | 0.01 | 0.02 | 56 | 1008.8 |
| 20260905152138 | 73 | 88 | 2.6 | 6.1 | 0.00 | 0.01 | 0.02 | 55 | 1008.8 |
| 20260905151106 | 74 | 145 | 0.9 | 9.6 | 0.00 | 0.01 | 0.02 | 53 | 1008.8 |
| 20260905150105 | 73 | 190 | 0.9 | 9.6 | 0.00 | 0.01 | 0.02 | 54 | 1008.5 |
| 20260905145104 | 73 | 108 | 1.7 | 7.8 | 0.00 | 0.01 | 0.02 | 53 | 1008.8 |
| 20260905144031 | 73 | 186 | 1.7 | 6.1 | 0.00 | 0.01 | 0.02 | 56 | 1008.5 |
| 20260905143030 | 74 | 32 | 1.7 | 7.8 | 0.00 | 0.01 | 0.02 | 56 | 1008.5 |
| 20260905141958 | 74 | 137 | 1.7 | 8.7 | 0.00 | 0.01 | 0.02 | 55 | 1008.5 |
| 20260905140957 | 75 | 326 | 0.9 | 6.1 | 0.00 | 0.01 | 0.02 | 55 | 1008.5 |
| 20260905135926 | 75 | 158 | 0.9 | 7.0 | 0.00 | 0.01 | 0.02 | 54 | 1008.5 |
| 20260905134925 | 75 | 49 | 0.9 | 4.3 | 0.00 | 0.01 | 0.02 | 54 | 1008.5 |
| 20260905133924 | 75 | 161 | 0.9 | 4.3 | 0.00 | 0.01 | 0.02 | 53 | 1008.1 |
| 20260905132851 | 74 | 140 | 1.7 | 8.7 | 0.00 | 0.01 | 0.02 | 53 | 1008.1 |
| 20260905131850 | 74 | 206 | 2.6 | 8.7 | 0.00 | 0.01 | 0.02 | 52 | 1008.1 |
| 20260905130849 | 75 | 80 | 1.7 | 5.2 | 0.00 | 0.01 | 0.02 | 51 | 1008.1 |
| 20260905125746 | 75 | 178 | 1.7 | 6.1 | 0.00 | 0.01 | 0.02 | 50 | 1008.1 |
| 20260905124745 | 75 | 333 | 1.7 | 5.2 | 0.00 | 0.01 | 0.02 | 50 | 1008.5 |
| 20260905123712 | 75 | 214 | 0.9 | 5.2 | 0.00 | 0.01 | 0.02 | 48 | 1008.1 |
| 20260905122711 | 76 | 126 | 0.9 | 6.1 | 0.00 | 0.01 | 0.02 | 48 | 1008.1 |
| 20260905121710 | 76 | 38 | 1.7 | 6.1 | 0.00 | 0.01 | 0.02 | 47 | 1008.1 |
| 20260905120709 | 76 | 207 | 1.7 | 5.2 | 0.00 | 0.01 | 0.02 | 48 | 1008.1 |
| 20260905115708 | 77 | 153 | 1.7 | 5.2 | 0.00 | 0.01 | 0.02 | 46 | 1008.1 |
| 20260905114707 | 79 | 56 | 1.7 | 4.3 | 0.00 | 0.01 | 0.02 | 45 | 1007.5 |
| 20260905113706 | 79 | 291 | 2.6 | 5.2 | 0.00 | 0.01 | 0.02 | 43 | 1007.5 |
| 20260905112603 | 78 | 50 | 1.7 | 7.8 | 0.00 | 0.01 | 0.02 | 46 | 1007.8 |
| 20260905111602 | 78 | 110 | 1.7 | 8.7 | 0.00 | 0.01 | 0.02 | 47 | 1007.5 |
| 20260905110601 | 80 | 212 | 2.6 | 7.0 | 0.00 | 0.01 | 0.02 | 48 | 1007.5 |
| 20260905105600 | 80 | 332 | 2.6 | 7.0 | 0.00 | 0.01 | 0.02 | 48 | 1007.5 |
| 20260905104559 | 81 | 23 | 1.7 | 5.2 | 0.00 | 0.01 | 0.02 | 48 | 1007.1 |
| 20260905103558 | 81 | 101 | 0.9 | 5.2 | 0.00 | 0.01 | 0.02 | 47 | 1007.1 |
| 20260905102557 | 81 | 228 | 1.7 | 5.2 | 0.00 | 0.01 | 0.02 | 47 | 1007.1 |
| 20260905101555 | 80 | 335 | 0.9 | 5.2 | 0.00 | 0.01 | 0.02 | 53 | 1007.1 |
| 20260905100554 | 78 | 178 | 1.7 | 6.1 | 0.00 | 0.01 | 0.02 | 55 | 1007.1 |
| 20260905095553 | 78 | 199 | 1.7 | 7.0 | 0.00 | 0.01 | 0.02 | 57 | 1007.1 |
| 20260905094552 | 80 | 121 | 0.9 | 5.2 | 0.00 | 0.01 | 0.02 | 57 | 1006.8 |
| 20260905093520 | 78 | 115 | 1.7 | 7.0 | 0.00 | 0.01 | 0.02 | 59 | 1007.1 |
| 20260905092519 | 78 | 236 | 0.9 | 3.5 | 0.00 | 0.01 | 0.02 | 60 | 1006.8 |
| 20260905091519 | 78 | 184 | 1.7 | 4.3 | 0.00 | 0.01 | 0.02 | 59 | 1006.8 |
| 20260905090518 | 80 | 68 | 1.7 | 4.3 | 0.00 | 0.01 | 0.02 | 57 | 1006.8 |